Tracking 25693 objects as of 1-Jul-2022
HD Live streaming from Space Station
objects crossing your sky now

FENGYUN 1C DEB

Track FENGYUN 1C DEB now!
10-day predictions


NORAD ID: 31955
Int'l Code: 1999-025CNG
Perigee: 727.7 km
Apogee: 817.9 km
Inclination: 99.3 °
Period: 100.2 minutes
Semi major axis: 7143 km
RCS: 0.0141 m2 (small)
Launch date: May 10, 1999
Source: People's Republic of China (PRC)
Launch site: Taiyaun Space Center, China (TSC)

Note: This is SATELLITE DEBRIS
aabbcc
Your satellite tracking list
Your tracking list is empty




NASA's NSSDC Master Catalog

Two Line Element Set (TLE):
1 31955U 99025CNG 22181.72780304  .00001191  00000-0  40284-3 0  9996
2 31955  99.2676 277.4314 0063180 318.2176 197.6756 14.37832615783029
Source of the keplerian elements: AFSPC